Location: Aragüita
(10.0436°N, 67.8028°W)
Time: 06:40:22
(UTC+00:00)

Cosmos 1862 Rocket - Visible Passes

Search period start: 12 July 2025 00:00
Search period end: 22 July 2025 00:00
Orbit: 597 x 628 km, 82.5° (Epoch: 11 July)

Date Brightness Start Highest point End Pass type
(mag) Time Alt. Az. Time Alt. Az. Time Alt. Az.
13 Jul 6.2 00:13:09 10° SW 00:16:21 20° W 00:19:32 10° NW visible
15 Jul 4.5 23:20:21 10° SSW 23:24:35 51° W 23:28:45 10° N visible
16 Jul 7.3 09:48:32 10° ENE 09:49:02 10° E 09:49:33 10° E visible
16 Jul 6.1 23:36:20 10° SW 23:39:50 24° W 23:43:18 10° NNW visible
17 Jul 6.9 23:53:45 10° WSW 23:55:08 11° W 23:56:30 10° WNW visible
21 Jul 6.5 09:24:48 10° NE 09:27:50 18° E 09:30:52 10° SE visible
21 Jul 6.8 23:16:23 10° WSW 23:18:35 14° W 23:20:47 10° NW visible
